Location: Cornospital
(48.0620°N, 3.3837°W)
Time: 15:19:48
(UTC+00:00)

Meteor 2-5 Rocket - Pass Details

Date: 17 June 2021
Orbit: 833 x 911 km, 81.2° (Epoch: 30 July)

Event Time Altitude Azimuth Distance (km) Brightness Sun altitude
Exits shadow 22:18:39 17° 179° (S) 2,003 5.1 -13.9°
Maximum altitude 22:22:58 71° 98° (E) 890 3.7 -14.3°
Drops below altitude 10° 22:28:34 10° 15° (NNE) 2,485 6.9 -14.7°
Sets 22:31:01 0° 14° (NNE) 3,436 7.7 -14.8°
